Devils Lake, ND

1:16 AM CDT on August 19, 2017 (GMT -0500)
Devils Lake Municipal

Weather History for KDVL - November, 2012

Change the Weather History Date:

Thursday, November 8, 2012

  Actual Average Record
Temperature  
Mean Temperature 34 °F -  
Max Temperature 42 °F 37 °F 64 °F (1999)
Min Temperature 26 °F 20 °F -3 °F (1966)
Degree Days  
Heating Degree Days 31    
Moisture  
Dew Point 28 °F    
Average Humidity 78    
Maximum Humidity 81    
Minimum Humidity 70    
Precipitation  
Precipitation 0.00 in - - ()
Sea Level Pressure  
Sea Level Pressure 29.99 in    
Wind  
Wind Speed 14 mph (North)    
Max Wind Speed 22 mph    
Max Gust Speed 30 mph    
Visibility 10 miles    
Events      
Averages and records for this station are not official NWS values.
T = Trace of Precipitation, MM = Missing Value Source: NWS Daily Summary

Daily Weather History Graph

Daily Weather History Graph

Search for Another Location

Airport or City:

Trip Planner

Search our weather history database for the weather conditions in past years. The results will help you decide how hot, cold, wet, or windy it might be!

Date:

Astronomy

Nov. 08, 2012 Rise Set
Actual Time 7:32 AM CST 5:05 PM CST
Civil Twilight 6:59 AM CST 5:39 PM CST
Nautical Twilight 6:21 AM CST 6:16 PM CST
Astronomical Twilight 5:45 AM CST 6:52 PM CST
Moon 1:03 AM CST (11/8) 2:10 PM CST (11/8)
Length of Visible Light 10h 39m
Length of Day
9h 33m
Waning Crescent, 32% of the Moon is Illuminated
Nov 8
Waning Crescent
Nov 13
New
Nov 20
First Quarter
Nov 28
Full
Dec 6
Last Quarter

Hourly Weather History & Observations

Time (CST) Temp. Windchill Dew Point Humidity Pressure Visibility Wind Dir Wind Speed Gust Speed Precip Events Conditions
12:15 AM 41.0 °F 35.8 °F 33.8 °F 76% 29.71 in 10.0 mi SSW 8.1 mph - N/A   Scattered Clouds
12:35 AM 41.0 °F 35.8 °F 33.8 °F 76% 29.72 in 10.0 mi SSW 8.1 mph - N/A   Mostly Cloudy
12:55 AM 41.0 °F 35.8 °F 33.8 °F 76% 29.72 in 10.0 mi SSW 8.1 mph - N/A   Overcast
1:15 AM 41.0 °F 35.8 °F 33.8 °F 76% 29.70 in 10.0 mi South 8.1 mph - N/A   Mostly Cloudy
1:35 AM 41.0 °F 35.8 °F 33.8 °F 76% 29.70 in 10.0 mi SSW 8.1 mph - N/A   Partly Cloudy
1:55 AM 41.0 °F 35.8 °F 33.8 °F 76% 29.72 in 10.0 mi SW 8.1 mph - N/A   Mostly Cloudy
2:15 AM 41.0 °F 35.2 °F 33.8 °F 76% 29.73 in 10.0 mi WSW 9.2 mph - N/A   Overcast
2:35 AM 42.8 °F 37.0 °F 33.8 °F 70% 29.74 in 10.0 mi West 10.4 mph - N/A   Overcast
2:55 AM 41.0 °F 35.8 °F 33.8 °F 76% 29.74 in 10.0 mi West 8.1 mph - N/A   Overcast
3:15 AM 41.0 °F 35.2 °F 33.8 °F 76% 29.73 in 10.0 mi WSW 9.2 mph - N/A   Overcast
3:35 AM 42.8 °F 38.6 °F 35.6 °F 76% 29.73 in 10.0 mi SW 6.9 mph - N/A   Overcast
3:55 AM 42.8 °F 36.2 °F 35.6 °F 76% 29.74 in 10.0 mi WNW 12.7 mph - N/A   Mostly Cloudy
4:15 AM 42.8 °F 35.1 °F 35.6 °F 76% 29.75 in 10.0 mi WNW 16.1 mph 20.7 mph N/A   Partly Cloudy
4:35 AM 42.8 °F 35.1 °F 35.6 °F 76% 29.77 in 10.0 mi WNW 16.1 mph - N/A   Clear
4:55 AM 41.0 °F 32.2 °F 35.6 °F 81% 29.78 in 10.0 mi WNW 18.4 mph 26.5 mph N/A   Partly Cloudy
5:15 AM 39.2 °F 29.3 °F 33.8 °F 81% 29.80 in 10.0 mi WNW 20.7 mph 25.3 mph N/A   Clear
5:35 AM 39.2 °F 29.3 °F 32.0 °F 75% 29.82 in 10.0 mi WNW 20.7 mph 27.6 mph N/A   Clear
5:55 AM 37.4 °F 26.6 °F 32.0 °F 81% 29.82 in 10.0 mi NW 21.9 mph 26.5 mph N/A   Clear
6:15 AM 37.4 °F 27.8 °F 30.2 °F 75% 29.83 in 10.0 mi NW 17.3 mph - N/A   Mostly Cloudy
6:35 AM 37.4 °F 27.5 °F 30.2 °F 75% 29.85 in 10.0 mi NW 18.4 mph 25.3 mph N/A   Overcast
6:55 AM 37.4 °F 27.5 °F 32.0 °F 81% 29.86 in 10.0 mi NW 18.4 mph 24.2 mph N/A   Overcast
7:15 AM 37.4 °F 27.8 °F 32.0 °F 81% 29.87 in 10.0 mi NW 17.3 mph 23.0 mph N/A   Overcast
7:35 AM 37.4 °F 28.9 °F 32.0 °F 81% 29.89 in 10.0 mi NW 13.8 mph - N/A   Overcast
7:55 AM 37.4 °F 26.6 °F 32.0 °F 81% 29.91 in 10.0 mi NNW 21.9 mph 25.3 mph N/A   Overcast
8:15 AM 37.4 °F 27.5 °F 32.0 °F 81% 29.93 in 10.0 mi NNW 18.4 mph 27.6 mph N/A   Overcast
8:35 AM 37.4 °F 28.2 °F 32.0 °F 81% 29.94 in 10.0 mi NNW 16.1 mph 29.9 mph N/A   Overcast
8:55 AM 37.4 °F 27.8 °F 32.0 °F 81% 29.95 in 10.0 mi NNW 17.3 mph - N/A   Overcast
9:15 AM 37.4 °F 27.8 °F 32.0 °F 81% 29.96 in 10.0 mi NNW 17.3 mph 24.2 mph N/A   Overcast
9:35 AM 37.4 °F 27.5 °F 30.2 °F 75% 29.98 in 10.0 mi North 18.4 mph 21.9 mph N/A   Overcast
9:55 AM 35.6 °F 24.2 °F 30.2 °F 81% 29.99 in 10.0 mi North 21.9 mph 27.6 mph N/A   Overcast
10:15 AM 35.6 °F 25.2 °F 30.2 °F 81% 30.00 in 10.0 mi North 18.4 mph 24.2 mph N/A   Overcast
10:35 AM 35.6 °F 25.2 °F 30.2 °F 81% 30.02 in 10.0 mi North 18.4 mph 23.0 mph N/A   Overcast
10:55 AM 35.6 °F 24.5 °F 30.2 °F 81% 30.02 in 10.0 mi North 20.7 mph - N/A   Overcast
11:15 AM 35.6 °F 25.2 °F 30.2 °F 81% 30.03 in 10.0 mi NNE 18.4 mph 25.3 mph N/A   Overcast
11:35 AM 35.6 °F 25.5 °F 30.2 °F 81% 30.04 in 10.0 mi NNE 17.3 mph 25.3 mph N/A   Overcast
11:55 AM 35.6 °F 25.5 °F 30.2 °F 81% 30.04 in 10.0 mi NNE 17.3 mph 24.2 mph N/A   Overcast
12:15 PM 35.6 °F 26.6 °F 30.2 °F 81% 30.05 in 10.0 mi NNE 13.8 mph - N/A   Overcast
12:35 PM 35.6 °F 24.2 °F 30.2 °F 81% 30.05 in 10.0 mi North 21.9 mph - N/A   Overcast
12:55 PM 35.6 °F 25.9 °F 28.4 °F 75% 30.06 in 10.0 mi NNE 16.1 mph 25.3 mph N/A   Overcast
1:15 PM 35.6 °F 24.2 °F 28.4 °F 75% 30.06 in 10.0 mi North 21.9 mph 27.6 mph N/A   Overcast
1:35 PM 35.6 °F 24.5 °F 26.6 °F 70% 30.06 in 10.0 mi NNE 20.7 mph - N/A   Overcast
1:55 PM 35.6 °F 25.2 °F 26.6 °F 70% 30.07 in 10.0 mi NNE 18.4 mph - N/A   Overcast
2:15 PM 35.6 °F 24.2 °F 28.4 °F 75% 30.08 in 10.0 mi North 21.9 mph 26.5 mph N/A   Overcast
2:35 PM 35.6 °F 24.8 °F 26.6 °F 70% 30.08 in 10.0 mi NNE 19.6 mph 24.2 mph N/A   Overcast
2:55 PM 35.6 °F 24.8 °F 26.6 °F 70% 30.08 in 10.0 mi NNE 19.6 mph 24.2 mph N/A   Overcast
3:15 PM 35.6 °F 24.8 °F 28.4 °F 75% 30.08 in 10.0 mi NNE 19.6 mph - N/A   Overcast
3:35 PM 35.6 °F 25.2 °F 26.6 °F 70% 30.10 in 10.0 mi NE 18.4 mph 24.2 mph N/A   Overcast
3:55 PM 33.8 °F 22.5 °F 26.6 °F 75% 30.10 in 10.0 mi NNE 19.6 mph 23.0 mph N/A   Overcast
4:15 PM 33.8 °F 25.3 °F 26.6 °F 75% 30.11 in 10.0 mi NNE 11.5 mph 20.7 mph N/A   Overcast
4:35 PM 32.0 °F 21.6 °F 26.6 °F 80% 30.12 in 7.0 mi NNE 15.0 mph - N/A   Overcast
4:55 PM 32.0 °F 21.2 °F 26.6 °F 80% 30.13 in 10.0 mi NNE 16.1 mph 19.6 mph N/A   Overcast
5:15 PM 30.2 °F 18.5 °F 24.8 °F 80% 30.13 in 10.0 mi NNE 17.3 mph 23.0 mph N/A   Overcast
5:35 PM 30.2 °F 18.9 °F 24.8 °F 80% 30.13 in 10.0 mi NE 16.1 mph - N/A   Overcast
5:55 PM 30.2 °F 19.3 °F 24.8 °F 80% 30.13 in 10.0 mi NE 15.0 mph - N/A   Overcast
6:15 PM 30.2 °F 17.8 °F 24.8 °F 80% 30.14 in 10.0 mi NNE 19.6 mph 23.0 mph N/A   Overcast
6:35 PM 28.4 °F 17.5 °F 23.0 °F 80% 30.15 in 10.0 mi NE 13.8 mph 19.6 mph N/A   Overcast
6:55 PM 28.4 °F 17.0 °F 21.2 °F 74% 30.15 in 10.0 mi NE 15.0 mph - N/A   Overcast
7:15 PM 28.4 °F 18.0 °F 21.2 °F 74% 30.15 in 10.0 mi ENE 12.7 mph - N/A   Overcast
7:35 PM 26.6 °F 14.7 °F 21.2 °F 80% 30.15 in 10.0 mi NE 15.0 mph - N/A   Overcast
7:55 PM 26.6 °F 15.2 °F 21.2 °F 80% 30.15 in 10.0 mi NE 13.8 mph - N/A   Overcast
8:15 PM 26.6 °F 13.4 °F 21.2 °F 80% 30.14 in 10.0 mi NE 18.4 mph - N/A   Overcast
8:35 PM 26.6 °F 15.2 °F 21.2 °F 80% 30.15 in 10.0 mi NE 13.8 mph 18.4 mph N/A   Overcast
8:55 PM 26.6 °F 16.2 °F 21.2 °F 80% 30.16 in 10.0 mi NE 11.5 mph - N/A   Overcast
9:15 PM 26.6 °F 14.7 °F 21.2 °F 80% 30.17 in 10.0 mi NE 15.0 mph 21.9 mph N/A   Overcast
9:35 PM 26.6 °F 15.2 °F 21.2 °F 80% 30.18 in 10.0 mi NNE 13.8 mph 21.9 mph N/A   Overcast
9:55 PM 26.6 °F 15.2 °F 21.2 °F 80% 30.19 in 10.0 mi NE 13.8 mph - N/A   Overcast
10:15 PM 26.6 °F 15.7 °F 21.2 °F 80% 30.19 in 10.0 mi NE 12.7 mph - N/A   Overcast
10:35 PM 26.6 °F 16.2 °F 21.2 °F 80% 30.20 in 10.0 mi NNE 11.5 mph - N/A   Overcast
10:55 PM 26.6 °F 15.2 °F 21.2 °F 80% 30.21 in 10.0 mi NNE 13.8 mph - N/A   Overcast
11:15 PM 26.6 °F 14.7 °F 21.2 °F 80% 30.20 in 10.0 mi NE 15.0 mph - N/A   Overcast
11:35 PM 26.6 °F 14.3 °F 21.2 °F 80% 30.20 in 10.0 mi NE 16.1 mph - N/A   Overcast
11:55 PM 26.6 °F 14.3 °F 21.2 °F 80% 30.21 in 10.0 mi NE 16.1 mph 23.0 mph N/A   Overcast